Location: Days
(41.3591°N, 106.7339°W)
Time: 01:03:13
(UTC+00:00)

AIST 2D - Visible Passes

Search period start: 30 June 2022 00:00
Search period end: 10 July 2022 00:00
Orbit: 433 x 449 km, 97.1° (Epoch: 28 June)

Date Brightness Start Highest point End Pass type
(mag) Time Alt. Az. Time Alt. Az. Time Alt. Az.
30 Jun ? 04:15:43 10° NNE 04:18:46 33° E 04:19:37 28° SE visible
30 Jun ? 05:49:33 10° NW 05:51:03 13° WNW 05:52:33 10° W visible
01 Jul ? 03:39:53 10° ENE 03:40:49 11° E 03:41:31 10° ESE visible
01 Jul ? 05:10:31 10° N 05:13:35 36° WNW 05:14:59 24° WSW visible
02 Jul ? 04:32:38 10° NNE 04:35:55 60° E 04:36:53 40° SSE visible
03 Jul ? 03:55:39 10° NE 03:58:02 18° E 03:58:45 17° ESE visible
03 Jul ? 05:27:57 10° NNW 05:30:35 22° WNW 05:32:12 16° WSW visible
04 Jul ? 04:49:37 10° N 04:52:58 73° WNW 04:54:04 39° SSW visible
05 Jul ? 04:12:08 10° NNE 04:15:08 30° E 04:15:54 27° SE visible
05 Jul ? 05:45:41 10° NW 05:47:27 14° WNW 05:49:13 10° W visible
06 Jul ? 05:06:44 10° N 05:09:53 40° WNW 05:11:10 27° SW visible
07 Jul ? 04:28:49 10° NNE 04:32:06 53° E 04:32:57 40° SSE visible
08 Jul ? 03:51:54 10° NE 03:54:07 16° E 03:54:44 16° ESE visible
08 Jul ? 05:23:56 10° NNW 05:26:41 24° WNW 05:28:12 18° WSW visible
09 Jul ? 04:45:37 10° N 04:48:57 83° WNW 04:49:56 43° SSW visible
